AQI (67)

Current Conditions for Foresthill, CA. Sunny, Dry   
Visibility: 10 miles
Space WX Alerts: WATCH:  Geomagnetic Storm Category G1 Predicted ( Latest Alert ) - Issue Time: 2018 Jun 24 2030 UTC

  Summary / Temperature 

Current Temperature
89.0°F
31.7°C
(24/hr Ago)
86.8°F
(Apparent temp)
89.0°F
Warm
Heat Index
86.8°F 

93.0°F/ 33.9°C
Noticeable discomfort

 Temp Rate:

 24/hr Difference:

 Avg Running Temp:

 Todays High:

 Todays Low:

 Y-days High:

 Y-days Low:

 Todays HeatIdx:

 Y-days HeatIdx:

 Evapotranspiration:

+1.4°F/hr 

+2.2°F

89.1°F

91.4°F 2:17pm

71.4°F 6:49am

87.5°F 4:14pm

65.8°F 6:24am

89.1°F 2:24pm

85.6°F 5:19pm

0.181 in

115' Above Ground

 Temperature:

 6'AGL VRS 115'AGL:

 Avg Running Temp:

 Humidity:

 Todays High:

 Todays Low:

 Y-days High:

 Y-days Low:

89.0°F 

0°F

89.3°F

33% 

91.0°F 1:22pm

76.0°F 12:22am

89.0°F 5:21pm

70.0°F 6:15am

Temp & Humidity Graphs

  Wind 

Wind Speed

 Calm

Gusting to

 8.0 mph

Wind from WSW

252°  WSW

Calm

 Avg speed:

 Wind Run:

 Peak Gust:

  2.0 mph 

35.0 miles

  23.0 mph 7:17am

  Almanac  

Moon age: 11 days,18 hours,14 minutes,90%

Waxing Gibbous
90%
Illuminated
11 days in cycle

 Moonrise:

 Moonset:

 Sunrise:

 Sunset:

 Solar Noon:

5:28pm

3:27am

5:38am

8:33pm

1:06pm

0min 8s less daylight tomorrow 

  Solar Radiation 

(Current Solar)
  826 W/m2 (83%)
(Todays High)
 951 W/m2@12:50pm
Feels like: 106.3°F in the sun

Rain

 Rain Today:

 Rain Rate (/hr):

 Rain last hour:

 Rain Yesterday:

 This Month:

 Season Total:

29 Days Since Last Rain Day

0.00 in

0.000 in

0.00 in

0.00 in

0.00 in

42.44 in

Updated Time

Updated: 6/24/18  3:09pm

(Updated  sec ago)

Humidity & Barometer

 Humidity:

 Wetbulb:

 Dew Point:

 Barometer:

30% 

68.4°F 

53.5°F 

29.782 inHg 

 Baro Trend:  Steady 
Northern Calif
Preparedness
Fire 
Level 

    UV Index  

(Current UV)
7.3  High
(Todays High) @ 12:44pm
9.7   Very High

National Weather Service Forecast

This
Afternoon
This Afternoon: Sunny
Sunny
Tonight

Tonight: Clear
Clear
Monday

Monday: Sunny
Sunny
Monday
Night
Monday Night: Clear
Clear
Tuesday

Tuesday: Sunny
Sunny
Tuesday
Night
Tuesday Night: Clear
Clear
Hi 93 °F Lo 66 °F Hi 88 °F Lo 64 °F Hi 89 °F Lo 63 °F

Foresthill Probe 2 Stats  
Foresthill Probe 2: is located on Thomas Street
at 3000 feet. The main Foresthill Weather site
is located on Melody ln at the 2860 foot elevation

Light Air
92.4°F
33.6°C
Temp Rate:
+0.9°F
1.0 mph
Gusting to
4.0 mph
(Humidity)
28%
Wind from W
261°  W
Updated: 24/06/18 - 15:05:01
 Todays High: 94.6°F 14:38
 Todays Low: 69.6°F 03:39
 Rain Today: 0.00 in
 Season Total: 44.79 in

Foresthill Wx: Monthly,Yearly, Highs and Lows 

Foresthill  
This Weather Data is coming from the main Foresthill
Weather site located on Melody ln at the 2860 foot
elevation
Not Foresthill Probe 2
Weather Data
Month
  High
Month
  Low
Year
High
Year
Low
Temp 91.4°F
6/24/18
46.3°F
6/1/18
91.4°F
6/24/18
21.9°F
2/23/18
Humidity 86%
6/17/18
16%
6/21/18
100%
1/8/18
15%
2/10/18
Heat Index 89.1°F
6/24/18
48.2°F
6/1/18
89.1°F
6/24/18
27.1°F
2/20/18
Wind Chill 91.4°F
6/24/18
44.3°F
6/10/18
91.4°F
6/24/18
9.2°F
2/23/18
Wind Gust 23 mph
6/24/18
0 mph
6/1/18
43 mph
3/1/18
0 mph
1/1/18
Barometer 30.11 in
6/1/18
29.60 in
6/16/18
30.55 in
1/27/18
29.60 in
6/16/18
ET 0.24 in
6/22/18
0.00 in
6/1/18
0.24 in
6/22/18
0.00 in
1/1/18
Dew Point 59.6°F
6/23/18
27.9°F
6/10/18
59.6°F
6/23/18
7.6°F
2/11/18
Pacific Satellite US Radar Satellite Imagery Sacramento,CA.  (click to enlarge)
NWS Weather Forecast - Summary
Updated: Sunday, June 24, 2018 - 3:30am PDT
Red Flag Warning for Gusty Wind and Low Humidity for the Sacramento and Northern San Joaquin Valleys and Adjacent Foothills continues through this evening
Current Interstate Highway Conditions for I-80 & US-50

[I 80: IN THE SAN FRANCISCO BAY AREA - SOLANO CO]
no traffic restrictions are reported for this area.

[I 80: IN THE NORTHERN CALIFORNIA AREA & SIERRA NEVADA]
no traffic restrictions are reported for this area.

[US 50: IN THE SACRAMENTO VALLEY & THE LAKE TAHOE BASIN]
westbound traffic is reduced to 1 lane 3 mi west of riverton /at peavine ridge rd/ (EL DORADO CO) - due to a traffic collision
NWS Weather Forecast: This Afternoon and Tonight (Updated: Sun, 24-Jun-2018 2:03pm PDT)
This
Afternoon
This Afternoon: Sunny
Sunny

Hi 93 °F
NWS forecast: Sunny, with a high near 93. Southwest wind around 8 mph.
Tonight

Tonight: Clear
Clear

Lo 66 °F
NWS forecast: Clear, with a low around 66. East southeast wind 2 to 8 mph.
YR.NO 10 Day Weather forecast
Last update: 06/24/2018 @ 00:40
Next update: 06/24/2018 @ 13:00
Provided by: 22
      Temperature Precipitation Pressure Wind  
Today
06/24/2018
12:00 18:00 91°F   29.77 inHg Gentle breeze from west-southwest 8 mph
  18:00 00:00 86°F   29.78 inHg Gentle breeze from south-southwest 8 mph
    (Click to enlarge)
meteogram

    Forecast for next 9 days

      Temperature Precip Pressure Wind  
Monday
06/25/2018
00:00 06:00 64°F   29.85 inHg Light breeze from east-southeast 4 mph
  06:00 12:00 59°F   29.86 inHg Light breeze from east 4 mph
  12:00 18:00 82°F   29.91 inHg Gentle breeze from south-southwest 8 mph
  18:00 00:00 82°F   29.86 inHg Light breeze from south-southwest 6 mph
      Temperature Precip Pressure Wind  
Tuesday
06/26/2018
00:00 06:00 63°F   29.88 inHg Light breeze from east 4 mph
  06:00 12:00 57°F   29.88 inHg Light breeze from east 4 mph
  12:00 18:00 88°F   29.89 inHg Gentle breeze from southwest 8 mph
  17:00 23:00 88°F   29.85 inHg Light breeze from southwest 7 mph
  23:00 05:00 66°F   29.88 inHg Light breeze from east-southeast 4 mph
      Temperature Precip Pressure Wind  
Wednesday
06/27/2018
05:00 11:00 54°F   29.85 inHg Light breeze from east 4 mph
  11:00 17:00 82°F   29.88 inHg Light breeze from southwest 7 mph
  17:00 23:00 82°F   29.85 inHg Light breeze from south-southwest 7 mph
  23:00 05:00 63°F   29.87 inHg Light breeze from east 4 mph
      Temperature Precip Pressure Wind  
Thursday
06/28/2018
05:00 11:00 54°F   29.86 inHg Light air from east-northeast 3 mph
  11:00 17:00 82°F   29.86 inHg Light breeze from west-southwest 6 mph
  17:00 23:00 86°F   29.80 inHg Light breeze from west-southwest 6 mph
  23:00 05:00 68°F   29.83 inHg Light air from east 2 mph
      Temperature Precip Pressure Wind  
Friday
06/29/2018
05:00 11:00 55°F   29.78 inHg Light breeze from east-northeast 6 mph
  11:00 17:00 86°F   29.78 inHg Light breeze from west 7 mph
  17:00 23:00 90°F   29.72 inHg Light breeze from west 6 mph
  23:00 05:00 70°F   29.75 inHg Light breeze from east-northeast 4 mph
      Temperature Precip Pressure Wind  
Saturday
06/30/2018
05:00 11:00 63°F   29.75 inHg Gentle breeze from east-northeast 9 mph
  11:00 17:00 90°F   29.77 inHg Light breeze from west 7 mph
  17:00 23:00 95°F   29.73 inHg Gentle breeze from west 9 mph
  23:00 05:00 70°F   29.78 inHg Light breeze from east-northeast 4 mph
      Temperature Precip Pressure Wind  
Sunday
07/01/2018
05:00 11:00 72°F   29.80 inHg Light breeze from east-northeast 7 mph
  11:00 17:00 88°F   29.86 inHg Light breeze from southwest 7 mph
  17:00 23:00 88°F   29.83 inHg Gentle breeze from south-southwest 8 mph
  23:00 05:00 68°F   29.89 inHg Light breeze from east-southeast 5 mph
      Temperature Precip Pressure Wind  
Monday
07/02/2018
05:00 11:00 57°F   29.87 inHg Light air from east 3 mph
  11:00 17:00 79°F   29.90 inHg Light breeze from southwest 6 mph
  17:00 23:00 82°F   29.82 inHg Gentle breeze from south-southwest 8 mph
  23:00 05:00 66°F   29.86 inHg Light breeze from southeast 6 mph
      Temperature Precip Pressure Wind  
Tuesday
07/03/2018
05:00 11:00 61°F   29.84 inHg Light breeze from southeast 4 mph
  11:00 17:00 77°F   29.89 inHg Light breeze from southwest 7 mph
How Close Are We To this Month's Temperature Record ?
Updated Sunday, Jun 24, 2018- 3:05:01 PM

Current Temperature: 89.0°F

June's High: Temperature Record 95.1°F - Set on Sat, Jun 8, 2013 - 3:58:00 PM
We are currently 6.1°F Less than this Month's record High

June's Low: Temperature Record 40.8°F - Set on Tue, Jun 5, 2012 - 5:41:00 AM
We are currently 48.2°F More than this Month's record Low

Weather History For Sunday, June 24, 2018


On this Day - In Weather History ...
Data courtesy of weatherforyou.com
powered by Cumulus v1.9.3 (1059)
Ambient Weather VWS v14.00
Top Contact Website Map Copyright © 2007 - 2018 Foresthillweather.com Never base important decisions on this or any weather information obtained from the Internet